{"data":{"norad_id":64600,"intl_designator":"2025-137G","name":"STARLINK-34504","alt_names":[],"object_type":"PAYLOAD","status":"ACTIVE","operator":null,"country":"US","launch_date":"2025-06-25","launch_site_code":"AFETR","launch_vehicle":null,"mission":null,"orbit_class":"UNKNOWN","rcs_meters":null,"size_class":null,"mass_kg":null,"dimensions":null,"purposes":["comms"],"wikipedia_slug":null,"has_3d_model":false,"image_url":null,"decayed_at":null,"tle_current":{"epoch":"2026-05-24T22:31:42.040992Z","epoch_age_seconds":76268,"freshness":"FRESH","line1":"1 64600U 25137G   26144.93868103  .00012763  00000+0  44221-3 0  9993","line2":"2 64600  53.1616 341.4479 0001176  80.7473 279.3661 15.30207591 52404","mean_motion":15.30207591,"eccentricity":0.0001176,"inclination_deg":53.1616,"raan_deg":341.4479,"arg_perigee_deg":80.7473,"mean_anomaly_deg":279.3661,"bstar":0.00044221,"rev_number":5240,"period_min":94.104878871954,"perigee_km":474.38645261738,"apogee_km":475.99835569324,"semimajor_km":6853.3294041553,"source":"CELESTRAK","updated_at":"2026-05-25T13:38:20.493175Z"}}}